TIANWANG 1A (TW-1A)
1 40928U 15051D   19307.86252416  .00003021  00000-0  74038-4 0  9991
2 40928  97.1329 336.0725 0009294 296.6814 149.2989 15.41462607230454
LAPAN A2
1 40931U 15052B   19305.11046749  .00000638  00000-0  00000+0 0  9996
2 40931   6.0120 170.8749 0010536 276.8949  83.0186 14.76617828221319
LQSAT
1 40958U 15057A   19307.86070273 +.00000007 +00000-0 +87307-5 0  9994
2 40958 097.8845 013.2207 0018842 154.0853 206.1303 14.73094638219151
CHUBUSAT 2
1 41338U 16012B   19307.55620143  .00000347  00000-0  20328-4 0  9998
2 41338  31.0042 348.5959 0013795  28.6579 331.4812 15.00203326203634
CHUBUSAT 3
1 41339U 16012C   19307.50971396  .00000371  00000-0  22054-4 0  9998
2 41339  31.0117 346.8046 0013418  34.8933 325.2588 15.00375073203620
OUFTI-1
1 41458U 16025C   19307.79259781 +.00001480 +00000-0 +79119-4 0  9998
2 41458 098.1006 041.6645 0164244 252.4818 105.8402 15.06142143193353
E-STAR-2
1 41459U 16025D   19307.84276674  .00001287  00000-0  69980-4 0  9995
2 41459  98.0994  41.2940 0165308 253.8001 104.4954 15.05759156193336
AAUSAT 4
1 41460U 16025E   19307.84052422  .00002001  00000-0  10355-3 0  9996
2 41460  98.0945  42.8970 0155332 245.0724 113.4251 15.07767873193488
NUSAT 1
1 41557U 16033B   19307.88925949 +.00001255 +00000-0 +49314-4 0  9997
2 41557 097.4140 034.5761 0014194 163.1727 196.9986 15.27499324191185
BEESAT 4
1 41619U 16040W   19307.86038852 +.00001363 +00000-0 +60131-4 0  9990
2 41619 097.3521 007.4118 0009645 255.3070 104.7098 15.23428502174897
PRATHAM
1 41783U 16059A   19307.82214043 +.00000060 +00000-0 +20994-4 0  9992
2 41783 098.0510 004.2347 0032470 311.0605 048.7793 14.63018080165742
ALSAT 1N
1 41789U 16059G   19307.76114269  .00000119  00000-0  31512-4 0  9993
2 41789  98.0540   6.4742 0027040 299.8888  59.9622 14.64273054165859
NAYIF 1
1 42017U 17008BX  19307.82420099  .00001495  00000-0  61171-4 0  9993
2 42017  97.3890  13.4094 0007447  52.6836 307.5080 15.25858519150980
MAX VALIER SAT
1 42778U 17036P   19307.84705447 +.00000928 +00000-0 +43284-4 0  9998
2 42778 097.3384 002.3598 0014033 098.8490 261.4336 15.22225822131258
